Location: Kuffner-Sternwarte
(48.2130°N, 16.2960°E)
Time: 21:07:16
(UTC+01:00)

N. Korean satellite - Pass Details

Date: 20 February 2019
Orbit: 456 x 510 km, 97.2° (Epoch: 22 March)

Event Time Altitude Azimuth Distance (km) Brightness Sun altitude
Rises 05:33:21 0° 22° (NNE) 2,514 10.5 -14.1°
Reaches altitude 10° 05:35:39 10° 36° (NE) 1,624 9.7 -13.7°
Maximum altitude 05:38:38 27° 95° (E) 929 8.9 -13.2°
Drops below altitude 10° 05:41:36 10° 155° (SSE) 1,597 9.6 -12.7°
Sets 05:43:50 0° 168° (SSE) 2,462 10.3 -12.3°
